Find Starlink 33869

NORAD ID: 63790 Int'l Des: 2025-091 Owner: SPXS Country: US Constellation: starlink operational
LEOCIRCULAR

リアルタイム位置

3D地球を読み込み中...

Starlink 33869について

説明を読み込み中...

次回通過

Passes for default location (London). Set your location on the main map for personalized predictions.

高度履歴

Loading altitude history...

軌道要素

1 63790U 25091R 26125.95844902 .00031003 00000-0 11297-2 0 9998
2 63790 42.9990 88.8398 0001297 200.1502 159.9299 15.27629695 57618
Epoch: May 5, 2026 • Age: 17 hours

現在のステータス

高度 483.1 km
速度 7.63 km/s
衛星直下点 21.35°N, 1.22°W
打ち上げ日 May 2, 2025
運用期間 1 years
タイプ internet

技術仕様

分類 Payload
質量 575.00 kg
乾燥質量 530.00 kg
総質量 575.00 kg
長さ 0.30 m
直径 4.10 m
スパン 29.00 m
形状 Box + pan
製造者 SPXS
バスタイプ Starlink V2MO
フェーズステータス In Orbit
所有者/国 SPXS/US

Most Searched